DW8935 Weather Reports


Display with metric or nautical units.
time (UTC)temp
F
wind
direction
speed
MPH
gust
MPH
rain 1hr
in
rain 24hr
in
rain mn
in
humidity
%
barometer
mb
20260509054529 63 279 1.0 5.0 0.00 0.00 0.00 76 1026.9
20260509053020 64 246 1.0 4.0 0.00 0.00 0.00 76 1026.8
20260509051521 64 237 2.0 6.0 0.00 0.00 0.00 75 1026.8
20260509050032 64 211 2.0 7.0 0.00 0.00 0.00 74 1026.8
20260509044520 65 225 1.0 5.0 0.00 0.00 0.00 73 1026.9
20260509043036 64 238 1.0 4.0 0.00 0.00 0.00 73 1026.8
20260509041519 64 210 1.0 4.0 0.00 0.00 0.00 71 1026.9
20260509040017 64 308 1.0 3.0 0.00 0.00 0.00 73 1026.9
20260509034516 63 213 0.0 3.0 0.00 0.00 0.00 74 1027.0
20260509033016 64 218 0.0 3.0 0.00 0.00 0.00 72 1027.0
20260509031518 63 219 0.0 3.0 0.00 0.00 0.00 73 1027.3
20260509030014 64 150 0.0 4.0 0.00 0.00 0.00 73 1027.3
20260509024511 63 78 2.0 5.0 0.00 0.00 0.00 77 1027.4
20260509023017 62 150 0.0 3.0 0.00 0.00 0.00 76 1027.7
20260509021517 62 169 0.0 6.0 0.00 0.00 0.00 74 1027.9
20260509020008 62 205 1.0 4.0 0.00 0.00 0.00 75 1028.0
20260509014505 62 279 0.0 5.0 0.00 0.00 0.00 75 1028.2
20260509013013 62 234 1.0 5.0 0.00 0.00 0.00 76 1028.2
20260509011503 60 217 0.0 3.0 0.00 0.00 0.00 80 1028.4
20260509010001 61 190 3.0 6.0 0.00 0.00 0.00 80 1028.4
20260509004625 61 184 1.0 4.0 0.00 0.00 0.00 82 1028.4
20260509004505 61 184 2.0 4.0 0.00 0.00 0.00 82 1028.3
20260509003101 60 144 0.0 4.0 0.00 0.00 0.00 86 1028.2
20260509001555 59 183 2.0 7.0 0.00 0.00 0.00 89 1028.3
20260509000053 58 200 1.0 3.0 0.00 0.00 0.00 91 1028.4
20260508234552 57 184 1.0 6.0 0.00 0.00 0.00 92 1028.3
20260508233058 56 207 0.0 2.0 0.00 0.00 0.00 93 1028.3
20260508231545 56 253 0.0 3.0 0.00 0.00 0.00 93 1028.3
20260508230054 55 241 0.0 2.0 0.00 0.00 0.00 93 1028.2
20260508224540 54 292 0.0 0.0 0.00 0.00 0.00 93 1028.0
20260508223039 54 294 0.0 0.0 0.00 0.00 0.00 93 1027.9
20260508221540 53 294 0.0 1.0 0.00 0.00 0.00 93 1027.8
20260508220036 53 294 0.0 1.0 0.00 0.00 0.00 92 1027.6
20260508214536 53 292 0.0 0.0 0.00 0.00 0.00 92 1027.5
20260508213035 53 292 0.0 0.0 0.00 0.00 0.00 92 1027.5
20260508211536 53 292 0.0 1.0 0.00 0.00 0.00 92 1027.4
20260508210039 54 202 0.0 0.0 0.00 0.00 0.00 92 1027.3
20260508204537 54 202 0.0 0.0 0.00 0.00 0.00 92 1027.3
20260508203032 54 203 0.0 1.0 0.00 0.00 0.00 92 1027.1
20260508201531 54 306 0.0 0.0 0.00 0.00 0.00 92 1027.0
20260508200039 53 306 0.0 0.0 0.00 0.00 0.00 92 1026.8
20260508194529 53 306 0.0 0.0 0.00 0.00 0.00 91 1026.6
20260508193028 54 306 0.0 0.0 0.00 0.00 0.00 91 1026.4
20260508191525 54 306 0.0 0.0 0.00 0.00 0.00 91 1026.3
20260508190029 54 308 0.0 1.0 0.00 0.00 0.00 91 1026.2
20260508184550 54 306 0.0 2.0 0.00 0.00 0.00 91 1026.2
20260508183024 54 300 0.0 2.0 0.00 0.00 0.00 90 1026.0
20260508181539 54 298 0.0 3.0 0.00 0.00 0.00 90 1025.9
20260508180020 53 300 0.0 2.0 0.00 0.00 0.00 90 1025.8
20260508174520 53 294 0.0 2.0 0.00 0.00 0.00 88 1025.9
20260508173020 53 271 0.0 0.0 0.00 0.00 0.00 87 1025.8
20260508171520 54 271 0.0 2.0 0.00 0.00 0.00 87 1025.8
20260508170019 54 238 0.0 3.0 0.00 0.00 0.00 88 1026.0
20260508164518 54 219 0.0 4.0 0.00 0.00 0.00 88 1025.8
20260508163017 54 275 0.0 3.0 0.00 0.00 0.00 88 1025.8
20260508161516 53 269 0.0 2.0 0.00 0.00 0.00 88 1025.8
20260508160018 53 263 0.0 0.0 0.00 0.00 0.00 88 1025.7
20260508154516 53 263 0.0 0.0 0.00 0.00 0.00 88 1025.8
20260508153016 53 263 0.0 3.0 0.00 0.00 0.00 88 1025.7
20260508151514 53 278 0.0 0.0 0.00 0.00 0.00 88 1025.7
20260508150019 53 275 0.0 0.0 0.00 0.00 0.00 87 1025.6
20260508144527 53 275 0.0 0.0 0.00 0.00 0.00 86 1025.7
20260508143010 54 275 0.0 0.0 0.00 0.00 0.00 86 1025.6
20260508141508 54 275 0.0 2.0 0.00 0.00 0.00 86 1025.6
20260508140010 54 244 0.0 0.0 0.00 0.00 0.00 87 1025.6
20260508134506 54 244 0.0 0.0 0.00 0.00 0.00 86 1025.6
20260508133006 54 244 0.0 0.0 0.00 0.00 0.00 85 1025.7
20260508131506 55 244 0.0 0.0 0.00 0.00 0.00 85 1025.7
20260508130005 55 244 0.0 3.0 0.00 0.00 0.00 85 1025.7
20260508124505 55 235 1.0 5.0 0.00 0.00 0.00 85 1025.9
20260508123005 55 213 1.0 3.0 0.00 0.00 0.00 85 1025.9
20260508121505 56 223 1.0 6.0 0.00 0.00 0.00 86 1026.0
20260508120004 56 216 0.0 3.0 0.00 0.00 0.00 86 1026.1
20260508114501 55 224 0.0 3.0 0.00 0.00 0.00 86 1025.9
20260508113001 55 234 0.0 3.0 0.00 0.00 0.00 86 1025.6
20260508111608 55 233 0.0 6.0 0.00 0.00 0.00 86 1025.6
20260508104558 55 261 0.0 2.0 0.00 0.00 0.00 86 1025.5
20260508103101 55 280 0.0 2.0 0.00 0.00 0.00 86 1025.4
20260508101615 55 269 0.0 2.0 0.00 0.00 0.00 85 1025.2
20260508100056 56 243 0.0 3.0 0.00 0.00 0.00 85 1025.2
20260508094555 56 246 0.0 4.0 0.00 0.00 0.00 85 1025.0
20260508093056 56 233 0.0 5.0 0.00 0.00 0.00 85 1025.1
20260508091606 56 269 0.0 3.0 0.00 0.00 0.00 85 1025.0
20260508090108 56 260 0.0 3.0 0.00 0.00 0.00 85 1024.9
20260508084553 56 244 1.0 4.0 0.00 0.00 0.00 84 1024.9
20260508083051 56 206 0.0 7.0 0.00 0.00 0.00 84 1024.7
20260508081558 56 195 3.0 9.0 0.00 0.00 0.00 83 1024.6
20260508080048 56 223 2.0 5.0 0.00 0.00 0.00 82 1024.5
20260508074547 57 230 1.0 9.0 0.00 0.00 0.00 81 1024.0
20260508073052 57 222 1.0 8.0 0.00 0.00 0.00 80 1024.1
20260508071554 58 247 1.0 5.0 0.00 0.00 0.00 80 1023.9
20260508070046 59 180 2.0 6.0 0.00 0.00 0.00 77 1023.9
20260508064543 59 242 2.0 7.0 0.00 0.00 0.00 76 1023.6
20260508063043 59 197 5.0 11.0 0.00 0.00 0.00 75 1023.6
20260508061541 59 237 2.0 7.0 0.00 0.00 0.00 79 1023.4
20260508060041 59 193 2.0 7.0 0.00 0.00 0.00 78 1023.5